Location: Campillo
(40.8621°N, 4.2488°W)
Time: 12:16:22
(UTC+00:00)

Cosmos 1666 Rocket - Pass Details

Date: 11 May 2021
Orbit: 602 x 634 km, 82.5° (Epoch: 14 June)

Event Time Altitude Azimuth Distance (km) Brightness Sun altitude
Rises 21:02:53 0° 350° (N) 2,901 7.9 -16.3°
Reaches altitude 10° 21:05:08 10° 348° (NNW) 1,985 7.0 -16.6°
Maximum altitude 21:09:30 72° 265° (W) 646 3.7 -17.2°
Enters shadow 21:12:11 23° 184° (S) 1,318 4.9 -17.6°
